Time,TemperatureF,DewpointF,PressureIn,WindDirection,WindDirectionDegrees,WindSpeedMPH,WindSpeedGustMPH,Humidity,HourlyPrecipIn,Conditions,Clouds,dailyrainin,SoftwareType,DateUTC
2013-02-12 00:12:00,32.8,31.0,29.65,WNW,285,0.0,-999.0,94,-99.99,,,0.00,weatherlink.com 1.10,2013-02-12 05:12:00,
2013-02-12 00:27:00,32.7,31.0,29.65,NW,312,0.0,-999.0,94,-99.99,,,0.00,weatherlink.com 1.10,2013-02-12 05:27:00,
2013-02-12 00:42:00,32.9,32.0,29.66,WNW,294,0.0,-999.0,95,-99.99,,,0.00,weatherlink.com 1.10,2013-02-12 05:42:00,
2013-02-12 00:57:00,32.8,32.0,29.66,WNW,294,0.0,-999.0,95,-99.99,,,0.00,weatherlink.com 1.10,2013-02-12 05:57:00,
2013-02-12 01:12:00,32.8,32.0,29.66,WNW,294,0.0,-999.0,95,-99.99,,,0.00,weatherlink.com 1.10,2013-02-12 06:12:00,
2013-02-12 01:27:00,33.0,32.0,29.66,NW,311,2.0,-999.0,95,-99.99,,,0.00,weatherlink.com 1.10,2013-02-12 06:27:00,
2013-02-12 01:42:00,33.2,32.0,29.67,WNW,299,0.0,-999.0,95,-99.99,,,0.00,weatherlink.com 1.10,2013-02-12 06:42:00,
2013-02-12 01:57:00,33.2,32.0,29.67,WNW,299,0.0,-999.0,95,-99.99,,,0.00,weatherlink.com 1.10,2013-02-12 06:57:00,
2013-02-12 02:12:00,33.3,32.0,29.67,WNW,290,0.0,-999.0,95,-99.99,,,0.00,weatherlink.com 1.10,2013-02-12 07:12:00,
2013-02-12 02:27:00,33.2,32.0,29.67,WNW,290,1.0,-999.0,95,-99.99,,,0.00,weatherlink.com 1.10,2013-02-12 07:27:00,
2013-02-12 02:42:00,33.3,32.0,29.67,WNW,290,0.0,-999.0,95,-99.99,,,0.00,weatherlink.com 1.10,2013-02-12 07:42:00,
2013-02-12 02:57:00,33.5,32.0,29.67,West,274,0.0,-999.0,94,-99.99,,,0.00,weatherlink.com 1.10,2013-02-12 07:57:00,
2013-02-12 03:12:00,33.6,32.0,29.66,WNW,283,3.0,-999.0,94,-99.99,,,0.00,weatherlink.com 1.10,2013-02-12 08:12:00,
2013-02-12 03:27:00,33.9,32.0,29.67,WSW,257,0.0,-999.0,91,-99.99,,,0.00,weatherlink.com 1.10,2013-02-12 08:27:00,
2013-02-12 03:42:00,34.3,31.0,29.67,NNW,337,4.0,-999.0,87,-99.99,,,0.00,weatherlink.com 1.10,2013-02-12 08:42:00,
2013-02-12 03:57:00,34.4,30.0,29.67,NW,316,0.0,-999.0,84,-99.99,,,0.00,weatherlink.com 1.10,2013-02-12 08:57:00,
2013-02-12 04:12:00,34.4,30.0,29.68,NW,316,0.0,-999.0,84,-99.99,,,0.00,weatherlink.com 1.10,2013-02-12 09:12:00,
2013-02-12 04:27:00,34.4,30.0,29.68,NW,312,0.0,-999.0,85,-99.99,,,0.00,weatherlink.com 1.10,2013-02-12 09:27:00,
2013-02-12 04:42:00,34.0,30.0,29.68,NW,312,0.0,-999.0,85,-99.99,,,0.00,weatherlink.com 1.10,2013-02-12 09:42:00,
2013-02-12 04:57:00,33.8,30.0,29.69,NW,320,3.0,-999.0,86,-99.99,,,0.00,weatherlink.com 1.10,2013-02-12 09:57:00,
2013-02-12 05:12:00,33.9,30.0,29.69,WNW,300,0.0,-999.0,85,-99.99,,,0.00,weatherlink.com 1.10,2013-02-12 10:12:00,
2013-02-12 05:27:00,34.0,30.0,29.69,WNW,300,0.0,-999.0,85,-99.99,,,0.00,weatherlink.com 1.10,2013-02-12 10:27:00,
2013-02-12 05:42:00,33.9,30.0,29.69,WNW,297,0.0,-999.0,85,-99.99,,,0.00,weatherlink.com 1.10,2013-02-12 10:42:00,
2013-02-12 05:57:00,33.8,30.0,29.69,West,264,1.0,-999.0,85,-99.99,,,0.00,weatherlink.com 1.10,2013-02-12 10:57:00,
2013-02-12 06:12:00,33.7,29.0,29.69,West,261,0.0,-999.0,84,-99.99,,,0.00,weatherlink.com 1.10,2013-02-12 11:12:00,
2013-02-12 06:27:00,33.7,29.0,29.70,West,277,0.0,-999.0,84,-99.99,,,0.00,weatherlink.com 1.10,2013-02-12 11:27:00,
2013-02-12 06:42:00,33.7,29.0,29.70,West,275,1.0,-999.0,84,-99.99,,,0.00,weatherlink.com 1.10,2013-02-12 11:42:00,
2013-02-12 06:57:00,33.6,29.0,29.71,West,273,0.0,-999.0,83,-99.99,,,0.00,weatherlink.com 1.10,2013-02-12 11:57:00,
2013-02-12 07:12:00,33.5,29.0,29.71,West,273,0.0,-999.0,82,-99.99,,,0.00,weatherlink.com 1.10,2013-02-12 12:12:00,
2013-02-12 07:27:00,33.5,29.0,29.71,West,273,0.0,-999.0,82,-99.99,,,0.00,weatherlink.com 1.10,2013-02-12 12:27:00,
2013-02-12 07:42:00,33.9,28.0,29.72,WNW,292,0.0,-999.0,79,-99.99,,,0.00,weatherlink.com 1.10,2013-02-12 12:42:00,
2013-02-12 07:58:00,34.4,28.0,29.72,WSW,248,0.0,-999.0,77,-99.99,,,0.00,weatherlink.com 1.10,2013-02-12 12:58:00,
2013-02-12 08:13:00,34.9,28.0,29.73,WNW,285,1.0,-999.0,75,-99.99,,,0.00,weatherlink.com 1.10,2013-02-12 13:13:00,
2013-02-12 08:27:00,35.3,27.0,29.74,West,260,1.0,-999.0,73,-99.99,,,0.00,weatherlink.com 1.10,2013-02-12 13:27:00,
2013-02-12 08:42:00,35.5,27.0,29.74,NW,307,3.0,-999.0,72,-99.99,,,0.00,weatherlink.com 1.10,2013-02-12 13:42:00,
2013-02-12 08:57:00,35.8,27.0,29.75,WNW,290,5.0,-999.0,71,-99.99,,,0.00,weatherlink.com 1.10,2013-02-12 13:57:00,
2013-02-12 09:12:00,36.0,27.0,29.75,West,279,4.0,-999.0,69,-99.99,,,0.00,weatherlink.com 1.10,2013-02-12 14:12:00,
2013-02-12 09:27:00,36.1,27.0,29.76,West,275,3.0,-999.0,69,-99.99,,,0.00,weatherlink.com 1.10,2013-02-12 14:27:00,
2013-02-12 09:42:00,36.4,27.0,29.76,West,261,4.0,-999.0,69,-99.99,,,0.00,weatherlink.com 1.10,2013-02-12 14:42:00,
2013-02-12 09:58:00,36.8,27.0,29.76,WNW,286,1.0,-999.0,68,-99.99,,,0.00,weatherlink.com 1.10,2013-02-12 14:58:00,
2013-02-12 10:13:00,37.3,27.0,29.76,West,274,0.0,-999.0,67,-99.99,,,0.00,weatherlink.com 1.10,2013-02-12 15:13:00,
2013-02-12 10:28:00,37.7,27.0,29.77,West,276,2.0,-999.0,66,-99.99,,,0.00,weatherlink.com 1.10,2013-02-12 15:28:00,
2013-02-12 10:43:00,37.7,27.0,29.78,NW,317,0.0,-999.0,65,-99.99,,,0.00,weatherlink.com 1.10,2013-02-12 15:43:00,
2013-02-12 10:58:00,37.5,27.0,29.78,WSW,240,1.0,-999.0,66,-99.99,,,0.00,weatherlink.com 1.10,2013-02-12 15:58:00,
2013-02-12 11:13:00,37.9,27.0,29.79,NW,306,5.0,-999.0,65,-99.99,,,0.00,weatherlink.com 1.10,2013-02-12 16:13:00,
2013-02-12 11:28:00,37.9,27.0,29.79,West,272,2.0,-999.0,65,-99.99,,,0.00,weatherlink.com 1.10,2013-02-12 16:28:00,
2013-02-12 11:43:00,38.2,27.0,29.78,West,266,3.0,-999.0,64,-99.99,,,0.00,weatherlink.com 1.10,2013-02-12 16:43:00,
2013-02-12 11:58:00,38.6,27.0,29.78,WNW,303,4.0,-999.0,64,-99.99,,,0.00,weatherlink.com 1.10,2013-02-12 16:58:00,
2013-02-12 12:13:00,39.8,28.0,29.78,NW,305,3.0,-999.0,62,-99.99,,,0.00,weatherlink.com 1.10,2013-02-12 17:13:00,
2013-02-12 12:28:00,40.5,27.0,29.77,WSW,246,1.0,-999.0,60,-99.99,,,0.00,weatherlink.com 1.10,2013-02-12 17:28:00,
2013-02-12 12:43:00,40.4,27.0,29.77,WSW,257,4.0,-999.0,60,-99.99,,,0.00,weatherlink.com 1.10,2013-02-12 17:43:00,
2013-02-12 12:58:00,40.2,27.0,29.77,West,279,3.0,-999.0,60,-99.99,,,0.00,weatherlink.com 1.10,2013-02-12 17:58:00,
2013-02-12 13:13:00,39.5,27.0,29.79,West,266,2.0,-999.0,61,-99.99,,,0.00,weatherlink.com 1.10,2013-02-12 18:13:00,
2013-02-12 13:43:00,38.8,27.0,29.79,WNW,293,3.0,-999.0,63,-99.99,,,0.00,weatherlink.com 1.10,2013-02-12 18:43:00,
2013-02-12 13:58:00,38.0,27.0,29.80,West,273,8.0,-999.0,64,-99.99,,,0.00,weatherlink.com 1.10,2013-02-12 18:58:00,
2013-02-12 14:13:00,37.4,27.0,29.81,West,267,4.0,-999.0,66,-99.99,,,0.00,weatherlink.com 1.10,2013-02-12 19:13:00,
2013-02-12 14:28:00,36.8,27.0,29.81,West,275,3.0,-999.0,67,-99.99,,,0.00,weatherlink.com 1.10,2013-02-12 19:28:00,
2013-02-12 14:43:00,36.5,27.0,29.80,West,273,3.0,-999.0,68,-99.99,,,0.00,weatherlink.com 1.10,2013-02-12 19:43:00,
2013-02-12 14:58:00,36.8,27.0,29.80,WNW,284,1.0,-999.0,67,-99.99,,,0.00,weatherlink.com 1.10,2013-02-12 19:58:00,
2013-02-12 15:13:00,36.5,27.0,29.80,WNW,294,6.0,-999.0,68,-99.99,,,0.00,weatherlink.com 1.10,2013-02-12 20:13:00,
2013-02-12 15:28:00,36.6,27.0,29.80,WNW,298,3.0,-999.0,68,-99.99,,,0.00,weatherlink.com 1.10,2013-02-12 20:28:00,
2013-02-12 15:58:00,36.1,26.0,29.80,WNW,294,5.0,-999.0,68,-99.99,,,0.00,weatherlink.com 1.10,2013-02-12 20:58:00,
2013-02-12 16:13:00,35.7,26.0,29.80,WSW,246,0.0,-999.0,69,-99.99,,,0.00,weatherlink.com 1.10,2013-02-12 21:13:00,
2013-02-12 16:28:00,36.1,27.0,29.79,WNW,290,1.0,-999.0,69,-99.99,,,0.00,weatherlink.com 1.10,2013-02-12 21:28:00,
2013-02-12 16:43:00,36.0,26.0,29.78,West,269,0.0,-999.0,68,-99.99,,,0.00,weatherlink.com 1.10,2013-02-12 21:43:00,
2013-02-12 16:58:00,35.4,26.0,29.77,NW,313,2.0,-999.0,69,-99.99,,,0.00,weatherlink.com 1.10,2013-02-12 21:58:00,
2013-02-12 17:14:00,34.5,26.0,29.77,NW,326,2.0,-999.0,71,-99.99,,,0.00,weatherlink.com 1.10,2013-02-12 22:14:00,
2013-02-12 17:29:00,34.2,26.0,29.79,WNW,283,4.0,-999.0,71,-99.99,,,0.00,weatherlink.com 1.10,2013-02-12 22:29:00,
2013-02-12 17:44:00,33.9,26.0,29.80,WNW,294,2.0,-999.0,72,-99.99,,,0.00,weatherlink.com 1.10,2013-02-12 22:44:00,
2013-02-12 17:59:00,33.7,26.0,29.82,NW,306,0.0,-999.0,72,-99.99,,,0.00,weatherlink.com 1.10,2013-02-12 22:59:00,
2013-02-12 18:13:00,33.5,26.0,29.84,WNW,294,0.0,-999.0,73,-99.99,,,0.00,weatherlink.com 1.10,2013-02-12 23:13:00,
2013-02-12 18:28:00,33.4,26.0,29.85,West,260,0.0,-999.0,73,-99.99,,,0.00,weatherlink.com 1.10,2013-02-12 23:28:00,
2013-02-12 18:43:00,33.3,26.0,29.88,West,267,2.0,-999.0,73,-99.99,,,0.00,weatherlink.com 1.10,2013-02-12 23:43:00,
2013-02-12 18:59:00,33.3,26.0,29.89,WSW,252,2.0,-999.0,73,-99.99,,,0.00,weatherlink.com 1.10,2013-02-12 23:59:00,
2013-02-12 19:13:00,33.3,25.0,29.90,West,281,1.0,-999.0,72,-99.99,,,0.00,weatherlink.com 1.10,2013-02-13 00:13:00,
2013-02-12 19:28:00,33.2,25.0,29.88,West,265,3.0,-999.0,72,-99.99,,,0.00,weatherlink.com 1.10,2013-02-13 00:28:00,
2013-02-12 19:43:00,33.1,25.0,29.89,WNW,290,0.0,-999.0,72,-99.99,,,0.00,weatherlink.com 1.10,2013-02-13 00:43:00,
2013-02-12 19:58:00,33.0,25.0,29.89,SW,230,1.0,-999.0,72,-99.99,,,0.00,weatherlink.com 1.10,2013-02-13 00:58:00,
2013-02-12 20:13:00,32.8,24.0,29.89,WNW,286,1.0,-999.0,71,-99.99,,,0.00,weatherlink.com 1.10,2013-02-13 01:13:00,
2013-02-12 20:29:00,32.7,24.0,29.87,West,267,4.0,-999.0,71,-99.99,,,0.00,weatherlink.com 1.10,2013-02-13 01:29:00,
2013-02-12 20:44:00,32.5,24.0,29.87,WNW,287,2.0,-999.0,70,-99.99,,,0.00,weatherlink.com 1.10,2013-02-13 01:44:00,
2013-02-12 20:59:00,32.5,23.0,29.87,NW,313,0.0,-999.0,69,-99.99,,,0.00,weatherlink.com 1.10,2013-02-13 01:59:00,
2013-02-12 21:14:00,32.4,24.0,29.87,WNW,288,2.0,-999.0,70,-99.99,,,0.00,weatherlink.com 1.10,2013-02-13 02:14:00,
2013-02-12 21:29:00,32.3,24.0,29.87,SW,236,1.0,-999.0,70,-99.99,,,0.00,weatherlink.com 1.10,2013-02-13 02:29:00,
2013-02-12 21:44:00,32.3,24.0,29.86,WNW,294,2.0,-999.0,70,-99.99,,,0.00,weatherlink.com 1.10,2013-02-13 02:44:00,
2013-02-12 21:59:00,32.4,24.0,29.85,West,267,0.0,-999.0,70,-99.99,,,0.00,weatherlink.com 1.10,2013-02-13 02:59:00,
2013-02-12 22:14:00,32.3,24.0,29.85,West,269,0.0,-999.0,71,-99.99,,,0.00,weatherlink.com 1.10,2013-02-13 03:14:00,
2013-02-12 22:29:00,32.3,24.0,29.85,WNW,290,3.0,-999.0,70,-99.99,,,0.00,weatherlink.com 1.10,2013-02-13 03:29:00,
2013-02-12 22:44:00,32.3,24.0,29.85,NW,313,3.0,-999.0,70,-99.99,,,0.00,weatherlink.com 1.10,2013-02-13 03:44:00,
2013-02-12 22:59:00,32.2,24.0,29.85,WNW,299,0.0,-999.0,71,-99.99,,,0.00,weatherlink.com 1.10,2013-02-13 03:59:00,
2013-02-12 23:14:00,32.0,24.0,29.86,WNW,293,0.0,-999.0,71,-99.99,,,0.00,weatherlink.com 1.10,2013-02-13 04:14:00,
2013-02-12 23:29:00,31.8,24.0,29.86,WNW,293,0.0,-999.0,72,-99.99,,,0.00,weatherlink.com 1.10,2013-02-13 04:29:00,
2013-02-12 23:44:00,31.5,23.0,29.85,WNW,299,2.0,-999.0,72,-99.99,,,0.00,weatherlink.com 1.10,2013-02-13 04:44:00,
2013-02-12 23:59:00,31.4,23.0,29.86,NW,322,2.0,-999.0,71,-99.99,,,0.00,weatherlink.com 1.10,2013-02-13 04:59:00,